Location: Moscow
(55.7500°N, 37.5830°E)
Time: 18:49:33
(UTC+03:00)

Vanguard 1 - Pass Details

Date: 05 December 2021
Orbit: 652 x 3830 km, 34.2° (Epoch: 22 January)

Event Time Altitude Azimuth Distance (km) Brightness Sun altitude
Rises 01:38:20 0° 239° (WSW) 7,613 - -53.6°
Reaches altitude 10° 01:43:50 10° 233° (SW) 6,794 - -53.2°
Maximum altitude 02:03:44 39° 176° (S) 4,772 - -51.5°
Exits shadow 02:10:36 32° 145° (SE) 4,818 13.3 -50.9°
Drops below altitude 10° 02:20:25 10° 117° (ESE) 5,756 14.1 -49.9°
Sets 02:24:34 0° 109° (ESE) 6,396 14.5 -49.5°
